{"data":{"norad_id":45154,"intl_designator":"2020-008Z","name":"ONEWEB-0049","alt_names":[],"object_type":"PAYLOAD","status":"ACTIVE","operator":null,"country":"UK","launch_date":"2020-02-06","launch_site_code":"TYMSC","launch_vehicle":null,"mission":null,"orbit_class":"UNKNOWN","rcs_meters":null,"size_class":null,"mass_kg":null,"dimensions":null,"purposes":["comms"],"wikipedia_slug":null,"has_3d_model":false,"image_url":null,"decayed_at":null,"tle_current":{"epoch":"2026-05-25T02:05:48.715296Z","epoch_age_seconds":63980,"freshness":"FRESH","line1":"1 45154U 20008Z   26145.08736939  .00000706  00000+0  19861-2 0  9991","line2":"2 45154  87.8855  40.8750 0002104  89.7919 270.3450 13.10372338305006","mean_motion":13.10372338,"eccentricity":0.0002104,"inclination_deg":87.8855,"raan_deg":40.875,"arg_perigee_deg":89.7919,"mean_anomaly_deg":270.345,"bstar":0.0019861,"rev_number":30500,"period_min":109.89242967368,"perigee_km":1220.1199931332,"apogee_km":1223.3180125392,"semimajor_km":7599.8560028362,"source":"CELESTRAK","updated_at":"2026-05-25T13:38:22.337769Z"}}}